| time (UTC) | temp F | wind direction | speed MPH | gust MPH | rain 1hr in | rain 24hr in | rain mn in | humidity % | barometer mb |
| 20260505022551 | 73 | 146 | 5.0 | 13.0 | 0.00 | 0.00 | 0.00 | 81 | 1010.7 |
| 20260505022054 | 73 | 179 | 6.0 | 13.0 | 0.00 | 0.00 | 0.00 | 81 | 1010.8 |
| 20260505021557 | 73 | 180 | 6.0 | 12.0 | 0.00 | 0.00 | 0.00 | 81 | 1010.6 |
| 20260505021054 | 73 | 196 | 5.0 | 12.0 | 0.00 | 0.00 | 0.00 | 81 | 1010.7 |
| 20260505020554 | 74 | 171 | 5.0 | 14.0 | 0.00 | 0.00 | 0.00 | 81 | 1010.7 |
| 20260505020055 | 74 | 159 | 6.0 | 17.0 | 0.00 | 0.00 | 0.00 | 80 | 1010.5 |
| 20260505015557 | 74 | 208 | 8.0 | 17.0 | 0.00 | 0.00 | 0.00 | 80 | 1010.6 |
| 20260505015055 | 74 | 198 | 7.0 | 15.0 | 0.00 | 0.00 | 0.00 | 80 | 1010.4 |
| 20260505014556 | 74 | 152 | 6.0 | 17.0 | 0.00 | 0.00 | 0.00 | 79 | 1010.5 |
| 20260505014056 | 74 | 169 | 9.0 | 17.0 | 0.00 | 0.00 | 0.00 | 79 | 1010.5 |
| 20260505013553 | 75 | 166 | 7.0 | 16.0 | 0.00 | 0.00 | 0.00 | 79 | 1010.5 |
| 20260505013059 | 75 | 181 | 5.0 | 20.0 | 0.00 | 0.00 | 0.00 | 78 | 1010.5 |
| 20260505012551 | 75 | 193 | 8.0 | 20.0 | 0.00 | 0.00 | 0.00 | 78 | 1010.3 |
| 20260505012053 | 75 | 162 | 7.0 | 16.0 | 0.00 | 0.00 | 0.00 | 78 | 1010.3 |
| 20260505011556 | 75 | 164 | 8.0 | 18.0 | 0.00 | 0.00 | 0.00 | 77 | 1010.2 |
| 20260505011053 | 76 | 182 | 8.0 | 19.0 | 0.00 | 0.00 | 0.00 | 77 | 1010.1 |
| 20260505010553 | 76 | 190 | 9.0 | 19.0 | 0.00 | 0.00 | 0.00 | 77 | 1010.1 |
| 20260505010056 | 76 | 177 | 8.0 | 18.0 | 0.00 | 0.00 | 0.00 | 76 | 1010.0 |
| 20260505005553 | 76 | 227 | 8.0 | 18.0 | 0.00 | 0.00 | 0.00 | 76 | 1010.0 |
| 20260505005053 | 76 | 190 | 10.0 | 19.0 | 0.00 | 0.00 | 0.00 | 76 | 1010.2 |
| 20260505004555 | 77 | 205 | 10.0 | 19.0 | 0.00 | 0.00 | 0.00 | 75 | 1010.4 |
| 20260505004055 | 77 | 167 | 9.0 | 16.0 | 0.00 | 0.00 | 0.00 | 75 | 1010.4 |
| 20260505003553 | 77 | 173 | 8.0 | 14.0 | 0.00 | 0.00 | 0.00 | 75 | 1010.5 |
| 20260505003056 | 77 | 193 | 6.0 | 16.0 | 0.00 | 0.00 | 0.00 | 74 | 1010.4 |
| 20260505002555 | 77 | 184 | 8.0 | 16.0 | 0.00 | 0.00 | 0.00 | 74 | 1010.5 |
| 20260505002056 | 78 | 188 | 6.0 | 16.0 | 0.00 | 0.00 | 0.00 | 74 | 1010.5 |
| 20260505001557 | 78 | 194 | 7.0 | 15.0 | 0.00 | 0.00 | 0.00 | 73 | 1010.4 |
| 20260505001053 | 78 | 196 | 9.0 | 15.0 | 0.00 | 0.00 | 0.00 | 73 | 1010.3 |
| 20260505000553 | 78 | 200 | 8.0 | 18.0 | 0.00 | 0.00 | 0.00 | 73 | 1010.2 |
| 20260505000107 | 78 | 186 | 8.0 | 18.0 | 0.00 | 0.00 | 0.00 | 73 | 1010.3 |
| 20260504235554 | 78 | 191 | 8.0 | 20.0 | 0.00 | 0.00 | 0.00 | 73 | 1010.3 |
| 20260504235053 | 78 | 200 | 11.0 | 20.0 | 0.00 | 0.00 | 0.00 | 73 | 1010.4 |
| 20260504234617 | 78 | 174 | 7.0 | 18.0 | 0.00 | 0.00 | 0.00 | 73 | 1010.5 |
| 20260504234053 | 78 | 188 | 10.0 | 17.0 | 0.00 | 0.00 | 0.00 | 72 | 1010.5 |
| 20260504233553 | 78 | 186 | 9.0 | 18.0 | 0.00 | 0.00 | 0.00 | 73 | 1010.6 |
| 20260504233057 | 78 | 197 | 8.0 | 20.0 | 0.00 | 0.00 | 0.00 | 72 | 1010.5 |
| 20260504232553 | 79 | 202 | 8.0 | 20.0 | 0.00 | 0.00 | 0.00 | 72 | 1010.7 |
| 20260504232054 | 79 | 234 | 9.0 | 17.0 | 0.00 | 0.00 | 0.00 | 72 | 1010.7 |
| 20260504231601 | 79 | 182 | 8.0 | 17.0 | 0.00 | 0.00 | 0.00 | 72 | 1010.8 |
| 20260504231054 | 79 | 163 | 8.0 | 16.0 | 0.00 | 0.00 | 0.00 | 71 | 1010.8 |
| 20260504230558 | 79 | 184 | 8.0 | 16.0 | 0.00 | 0.00 | 0.00 | 70 | 1010.8 |
| 20260504230059 | 80 | 206 | 8.0 | 15.0 | 0.00 | 0.00 | 0.00 | 71 | 1010.9 |
| 20260504225555 | 80 | 199 | 7.0 | 15.0 | 0.00 | 0.00 | 0.00 | 71 | 1011.1 |
| 20260504225054 | 80 | 171 | 7.0 | 16.0 | 0.00 | 0.00 | 0.00 | 70 | 1011.1 |
| 20260504224555 | 80 | 198 | 10.0 | 16.0 | 0.00 | 0.00 | 0.00 | 69 | 1011.1 |
| 20260504224058 | 81 | 200 | 9.0 | 15.0 | 0.00 | 0.00 | 0.00 | 69 | 1011.1 |
| 20260504223555 | 81 | 194 | 7.0 | 18.0 | 0.00 | 0.00 | 0.00 | 69 | 1011.0 |
| 20260504223054 | 81 | 180 | 9.0 | 18.0 | 0.00 | 0.00 | 0.00 | 68 | 1011.0 |
| 20260504222557 | 82 | 213 | 7.0 | 16.0 | 0.00 | 0.00 | 0.00 | 68 | 1011.0 |
| 20260504222054 | 81 | 197 | 9.0 | 16.0 | 0.00 | 0.00 | 0.00 | 68 | 1011.0 |
| 20260504221600 | 81 | 211 | 8.0 | 13.0 | 0.00 | 0.00 | 0.00 | 67 | 1011.0 |
| 20260504221056 | 81 | 208 | 7.0 | 13.0 | 0.00 | 0.00 | 0.00 | 68 | 1011.0 |
| 20260504220555 | 81 | 190 | 6.0 | 19.0 | 0.00 | 0.00 | 0.00 | 68 | 1011.0 |
| 20260504220058 | 81 | 165 | 6.0 | 19.0 | 0.00 | 0.00 | 0.00 | 67 | 1011.0 |
| 20260504215555 | 82 | 130 | 9.0 | 18.0 | 0.00 | 0.00 | 0.00 | 67 | 1011.0 |
| 20260504215053 | 82 | 204 | 7.0 | 18.0 | 0.00 | 0.00 | 0.00 | 67 | 1011.1 |
| 20260504214558 | 82 | 165 | 8.0 | 17.0 | 0.00 | 0.00 | 0.00 | 67 | 1011.1 |
| 20260504214055 | 82 | 201 | 10.0 | 16.0 | 0.00 | 0.00 | 0.00 | 66 | 1011.1 |
| 20260504213554 | 82 | 201 | 9.0 | 18.0 | 0.00 | 0.00 | 0.00 | 66 | 1011.3 |
| 20260504213057 | 81 | 157 | 7.0 | 18.0 | 0.00 | 0.00 | 0.00 | 69 | 1011.3 |
| 20260504212555 | 81 | 169 | 7.0 | 18.0 | 0.00 | 0.00 | 0.00 | 68 | 1011.4 |
| 20260504212055 | 81 | 211 | 8.0 | 18.0 | 0.00 | 0.00 | 0.00 | 66 | 1011.5 |
| 20260504211557 | 82 | 211 | 8.0 | 13.0 | 0.00 | 0.00 | 0.00 | 66 | 1011.7 |
| 20260504211054 | 82 | 182 | 7.0 | 15.0 | 0.00 | 0.00 | 0.00 | 66 | 1011.8 |
| 20260504210554 | 82 | 159 | 10.0 | 15.0 | 0.00 | 0.00 | 0.00 | 66 | 1011.9 |
| 20260504210108 | 82 | 206 | 8.0 | 14.0 | 0.00 | 0.00 | 0.00 | 65 | 1011.9 |
| 20260504205554 | 82 | 149 | 8.0 | 14.0 | 0.00 | 0.00 | 0.00 | 65 | 1012.0 |
| 20260504205052 | 82 | 217 | 7.0 | 13.0 | 0.00 | 0.00 | 0.00 | 65 | 1012.1 |
| 20260504204603 | 82 | 213 | 7.0 | 19.0 | 0.00 | 0.00 | 0.00 | 64 | 1012.1 |
| 20260504204055 | 82 | 189 | 7.0 | 19.0 | 0.00 | 0.00 | 0.00 | 63 | 1012.1 |
| 20260504203554 | 83 | 221 | 10.0 | 17.0 | 0.00 | 0.00 | 0.00 | 62 | 1012.2 |
| 20260504203054 | 83 | 211 | 8.0 | 15.0 | 0.00 | 0.00 | 0.00 | 62 | 1012.2 |
| 20260504202554 | 83 | 226 | 9.0 | 15.0 | 0.00 | 0.00 | 0.00 | 60 | 1012.3 |
| 20260504202057 | 83 | 190 | 6.0 | 12.0 | 0.00 | 0.00 | 0.00 | 61 | 1012.4 |
| 20260504201601 | 83 | 167 | 7.0 | 11.0 | 0.00 | 0.00 | 0.00 | 61 | 1012.3 |
| 20260504201052 | 83 | 180 | 5.0 | 11.0 | 0.00 | 0.00 | 0.00 | 62 | 1012.4 |
| 20260504200552 | 82 | 126 | 5.0 | 11.0 | 0.00 | 0.00 | 0.00 | 62 | 1012.4 |
| 20260504200100 | 82 | 140 | 6.0 | 11.0 | 0.00 | 0.00 | 0.00 | 63 | 1012.5 |
| 20260504195552 | 82 | 209 | 7.0 | 11.0 | 0.00 | 0.00 | 0.00 | 62 | 1012.7 |
| 20260504195053 | 82 | 169 | 4.0 | 13.0 | 0.00 | 0.00 | 0.00 | 63 | 1012.8 |
| 20260504194608 | 82 | 173 | 6.0 | 13.0 | 0.00 | 0.00 | 0.00 | 63 | 1013.0 |
| 20260504194053 | 82 | 182 | 7.0 | 13.0 | 0.00 | 0.00 | 0.00 | 63 | 1013.1 |
| 20260504193553 | 82 | 182 | 8.0 | 12.0 | 0.00 | 0.00 | 0.00 | 62 | 1013.1 |
| 20260504193053 | 82 | 194 | 8.0 | 12.0 | 0.00 | 0.00 | 0.00 | 62 | 1013.0 |
| 20260504192553 | 82 | 203 | 6.0 | 13.0 | 0.00 | 0.00 | 0.00 | 62 | 1013.1 |
| 20260504192053 | 82 | 196 | 7.0 | 13.0 | 0.00 | 0.00 | 0.00 | 63 | 1013.2 |
| 20260504191554 | 81 | 192 | 8.0 | 12.0 | 0.00 | 0.00 | 0.00 | 63 | 1013.4 |
| 20260504191053 | 81 | 183 | 5.0 | 12.0 | 0.00 | 0.00 | 0.00 | 63 | 1013.5 |
| 20260504190553 | 81 | 196 | 6.0 | 12.0 | 0.00 | 0.00 | 0.00 | 62 | 1013.5 |
| 20260504190117 | 81 | 202 | 4.0 | 13.0 | 0.00 | 0.00 | 0.00 | 63 | 1013.6 |
| 20260504185552 | 81 | 177 | 7.0 | 13.0 | 0.00 | 0.00 | 0.00 | 64 | 1013.8 |
| 20260504185050 | 81 | 171 | 6.0 | 12.0 | 0.00 | 0.00 | 0.00 | 64 | 1013.8 |
| 20260504184558 | 81 | 209 | 5.0 | 12.0 | 0.00 | 0.00 | 0.00 | 65 | 1013.8 |
| 20260504184056 | 80 | 141 | 3.0 | 13.0 | 0.00 | 0.00 | 0.00 | 65 | 1013.8 |
| 20260504183553 | 81 | 178 | 6.0 | 14.0 | 0.00 | 0.00 | 0.00 | 64 | 1014.0 |
| 20260504183053 | 81 | 189 | 7.0 | 14.0 | 0.00 | 0.00 | 0.00 | 63 | 1013.8 |
| 20260504182553 | 80 | 208 | 5.0 | 12.0 | 0.00 | 0.00 | 0.00 | 66 | 1014.1 |
| 20260504182053 | 80 | 218 | 5.0 | 13.0 | 0.00 | 0.00 | 0.00 | 66 | 1014.1 |
| 20260504181558 | 80 | 127 | 6.0 | 13.0 | 0.00 | 0.00 | 0.00 | 66 | 1014.0 |
| 20260504181053 | 79 | 171 | 6.0 | 13.0 | 0.00 | 0.00 | 0.00 | 68 | 1014.3 |
| 20260504180552 | 79 | 204 | 5.0 | 13.0 | 0.00 | 0.00 | 0.00 | 67 | 1014.5 |
| 20260504180144 | 79 | 201 | 6.0 | 16.0 | 0.00 | 0.00 | 0.00 | 67 | 1014.5 |
| 20260504175553 | 79 | 205 | 7.0 | 16.0 | 0.00 | 0.00 | 0.00 | 67 | 1014.6 |
| 20260504175059 | 79 | 197 | 8.0 | 15.0 | 0.00 | 0.00 | 0.00 | 67 | 1014.6 |
| 20260504174553 | 79 | 202 | 7.0 | 16.0 | 0.00 | 0.00 | 0.00 | 65 | 1014.5 |
| 20260504174054 | 79 | 175 | 9.0 | 16.0 | 0.00 | 0.00 | 0.00 | 67 | 1014.5 |
| 20260504173556 | 79 | 211 | 10.0 | 16.0 | 0.00 | 0.00 | 0.00 | 66 | 1014.6 |
| 20260504173100 | 79 | 176 | 6.0 | 16.0 | 0.00 | 0.00 | 0.00 | 66 | 1014.9 |
| 20260504172552 | 79 | 223 | 9.0 | 15.0 | 0.00 | 0.00 | 0.00 | 67 | 1014.9 |
| 20260504172051 | 78 | 215 | 7.0 | 12.0 | 0.00 | 0.00 | 0.00 | 68 | 1015.0 |
| 20260504171553 | 78 | 197 | 6.0 | 13.0 | 0.00 | 0.00 | 0.00 | 66 | 1014.9 |
| 20260504171054 | 79 | 197 | 8.0 | 14.0 | 0.00 | 0.00 | 0.00 | 65 | 1014.9 |
| 20260504170553 | 79 | 211 | 9.0 | 16.0 | 0.00 | 0.00 | 0.00 | 66 | 1015.0 |
| 20260504151053 | 74 | 185 | 10.0 | 19.0 | 0.00 | 0.00 | 0.00 | 71 | 1015.9 |
| 20260504150552 | 74 | 214 | 10.0 | 18.0 | 0.00 | 0.00 | 0.00 | 72 | 1015.7 |
| 20260504141053 | 70 | 199 | 6.0 | 13.0 | 0.00 | 0.00 | 0.00 | 78 | 1015.9 |
| 20260504140552 | 70 | 129 | 5.0 | 10.0 | 0.00 | 0.00 | 0.00 | 78 | 1015.9 |
| 20260504140113 | 69 | 192 | 4.0 | 9.0 | 0.00 | 0.00 | 0.00 | 79 | 1015.9 |
| 20260504130553 | 64 | 187 | 2.0 | 5.0 | 0.00 | 0.00 | 0.00 | 84 | 1015.9 |
| 20260504130110 | 63 | 180 | 3.0 | 6.0 | 0.00 | 0.00 | 0.00 | 85 | 1015.8 |
| 20260504120114 | 59 | 170 | 0.0 | 0.0 | 0.00 | 0.00 | 0.00 | 84 | 1015.3 |
| 20260504110557 | 60 | 0 | 0.0 | 0.0 | 0.00 | 0.00 | 0.00 | 81 | 1015.9 |
| 20260504100552 | 61 | 179 | 3.0 | 7.0 | 0.00 | 0.00 | 0.00 | 81 | 1015.5 |
| 20260504081555 | 61 | 175 | 2.0 | 5.0 | 0.00 | 0.00 | 0.00 | 79 | 1016.3 |
| 20260504081051 | 61 | 161 | 1.0 | 5.0 | 0.00 | 0.00 | 0.00 | 79 | 1016.4 |
| 20260504080551 | 61 | 0 | 1.0 | 5.0 | 0.00 | 0.00 | 0.00 | 79 | 1016.4 |
| 20260504050552 | 65 | 181 | 3.0 | 9.0 | 0.00 | 0.00 | 0.00 | 75 | 1018.4 |
| 20260504050120 | 65 | 171 | 2.0 | 10.0 | 0.00 | 0.00 | 0.00 | 75 | 1018.5 |
| 20260504045552 | 65 | 175 | 3.0 | 10.0 | 0.00 | 0.00 | 0.00 | 75 | 1018.5 |
| 20260504045052 | 65 | 175 | 4.0 | 9.0 | 0.00 | 0.00 | 0.00 | 75 | 1018.7 |
| 20260504044559 | 65 | 188 | 3.0 | 9.0 | 0.00 | 0.00 | 0.00 | 75 | 1018.8 |
| 20260504044052 | 65 | 183 | 4.0 | 9.0 | 0.00 | 0.00 | 0.00 | 75 | 1018.9 |
| 20260504043552 | 65 | 182 | 3.0 | 8.0 | 0.00 | 0.00 | 0.00 | 75 | 1018.9 |
| 20260504043059 | 65 | 181 | 4.0 | 7.0 | 0.00 | 0.00 | 0.00 | 75 | 1018.9 |
| 20260504042551 | 65 | 180 | 3.0 | 7.0 | 0.00 | 0.00 | 0.00 | 75 | 1018.9 |
| 20260504042052 | 65 | 180 | 3.0 | 6.0 | 0.00 | 0.00 | 0.00 | 75 | 1018.9 |
| 20260504041552 | 65 | 188 | 3.0 | 6.0 | 0.00 | 0.00 | 0.00 | 75 | 1018.9 |
| 20260504041052 | 65 | 184 | 3.0 | 6.0 | 0.00 | 0.00 | 0.00 | 74 | 1018.9 |
| 20260504040552 | 65 | 190 | 2.0 | 5.0 | 0.00 | 0.00 | 0.00 | 74 | 1018.8 |
| 20260504040105 | 65 | 178 | 2.0 | 6.0 | 0.00 | 0.00 | 0.00 | 74 | 1018.8 |
| 20260504035552 | 65 | 177 | 3.0 | 6.0 | 0.00 | 0.00 | 0.00 | 74 | 1018.8 |
| 20260504035052 | 65 | 186 | 3.0 | 6.0 | 0.00 | 0.00 | 0.00 | 73 | 1018.9 |
| 20260504034553 | 66 | 178 | 2.0 | 6.0 | 0.00 | 0.00 | 0.00 | 73 | 1018.9 |
| 20260504034052 | 66 | 171 | 2.0 | 6.0 | 0.00 | 0.00 | 0.00 | 73 | 1018.9 |
| 20260504033552 | 66 | 178 | 3.0 | 6.0 | 0.00 | 0.00 | 0.00 | 73 | 1018.8 |
| 20260504033057 | 66 | 177 | 3.0 | 7.0 | 0.00 | 0.00 | 0.00 | 72 | 1018.8 |
| 20260504032552 | 66 | 182 | 4.0 | 8.0 | 0.00 | 0.00 | 0.00 | 72 | 1018.9 |
| 20260504032053 | 66 | 192 | 4.0 | 8.0 | 0.00 | 0.00 | 0.00 | 72 | 1018.9 |
| 20260504031623 | 66 | 187 | 4.0 | 8.0 | 0.00 | 0.00 | 0.00 | 72 | 1018.8 |
| 20260504031052 | 67 | 178 | 4.0 | 7.0 | 0.00 | 0.00 | 0.00 | 72 | 1018.9 |
| 20260504030553 | 67 | 187 | 4.0 | 7.0 | 0.00 | 0.00 | 0.00 | 72 | 1018.9 |
| 20260504030054 | 67 | 173 | 4.0 | 7.0 | 0.00 | 0.00 | 0.00 | 71 | 1018.8 |
| 20260504025552 | 67 | 181 | 3.0 | 7.0 | 0.00 | 0.00 | 0.00 | 71 | 1018.9 |
| 20260504025056 | 67 | 178 | 3.0 | 6.0 | 0.00 | 0.00 | 0.00 | 71 | 1018.9 |
| 20260504024553 | 68 | 188 | 3.0 | 6.0 | 0.00 | 0.00 | 0.00 | 71 | 1018.8 |
| 20260504024052 | 68 | 173 | 3.0 | 6.0 | 0.00 | 0.00 | 0.00 | 70 | 1018.6 |
| 20260504023552 | 68 | 178 | 3.0 | 6.0 | 0.00 | 0.00 | 0.00 | 70 | 1018.5 |
| 20260504023059 | 68 | 186 | 2.0 | 7.0 | 0.00 | 0.00 | 0.00 | 70 | 1018.6 |